Location: Newark
(37.8444°N, 127.0614°E)
Time: 15:02:45
(UTC+00:00)

XW-2C - Visible Passes

Search period start: 18 January 2020 00:00
Search period end: 28 January 2020 00:00
Orbit: 508 x 528 km, 97.5° (Epoch: 18 January)

Date Brightness Start Highest point End Pass type
(mag) Time Alt. Az. Time Alt. Az. Time Alt. Az.
18 Jan ? 09:54:49 10° WSW 09:56:17 12° W 09:57:44 10° WNW visible
18 Jan ? 21:25:47 10° NNE 21:29:31 78° ESE 21:33:14 10° S visible
19 Jan ? 09:39:30 10° SW 09:42:07 18° W 09:44:45 10° NW visible
19 Jan ? 21:11:49 10° NNE 21:15:28 49° E 21:19:04 10° S visible
20 Jan ? 09:24:46 10° SSW 09:28:00 26° W 09:31:13 10° NW visible
20 Jan ? 20:58:00 10° NNE 21:01:22 31° E 21:04:42 10° SSE visible
21 Jan ? 09:10:19 10° SSW 09:13:54 39° W 09:17:30 10° NNW visible
21 Jan ? 20:44:21 10° NE 20:47:15 21° E 20:50:08 10° SE visible
22 Jan ? 20:31:02 10° ENE 20:33:06 14° E 20:35:09 10° SE visible
22 Jan ? 22:03:57 10° N 22:07:17 31° WNW 22:10:36 10° SW visible
23 Jan ? 21:49:41 10° N 21:53:18 48° WNW 21:56:53 10° SSW visible
24 Jan ? 21:35:33 10° N 21:39:17 76° WNW 21:42:59 10° SSW visible
25 Jan ? 09:50:06 10° WSW 09:51:59 13° W 09:53:52 10° WNW visible
25 Jan ? 21:21:31 10° NNE 21:25:14 68° ESE 21:28:56 10° S visible
26 Jan ? 09:35:01 10° SW 09:37:50 20° W 09:40:39 10° NW visible
26 Jan ? 21:07:35 10° NNE 21:11:10 42° E 21:14:42 10° S visible
27 Jan ? 09:20:23 10° SSW 09:23:43 29° W 09:27:03 10° NW visible
27 Jan ? 20:53:49 10° NE 20:57:03 28° E 21:00:17 10° SSE visible
